Find Starlink 33814

NORAD ID: 63582 Int'l Des: 2025-076 Owner: SPXS Country: US Constellation: starlink operational
LEOCIRCULAR

Current View

Loading 3D Globe...

About Starlink 33814

Starlink 33814 (NORAD 63582) is a starlink constellation satellite (v2 mini) launched Apr 14, 2025 by SPXS of US. It operates in LEO, CIRCULAR orbit with a mass of 575.00 kg.

About Starlink 33814

Description loading...

Upcoming Passes

Passes for default location (London). Set your location on the main map for personalized predictions.

Altitude History

Loading altitude history...

Two-Line Element Set

1 63582U 25076P 26171.15182594 .00013651 00000-0 50456-3 0 9995
2 63582 43.0011 102.7827 0001299 277.1837 82.8867 15.27587216 67509
Epoch: Jun 20, 2026 • Age: 29 hours

Current Status

Altitude 487.0 km
Velocity 7.62 km/s
Sub-Earth Point -19.53°S, 103.44°W
Launch Date Apr 14, 2025
Age 1.1 years
Type internet

Technical Details

Classification Payload
Mass 575.00 kg
Dry Mass 530.00 kg
Total Mass 575.00 kg
Length 0.30 m
Diameter 4.10 m
Span 29.00 m
Shape Box + pan
Manufacturer SPXS
Bus Type Starlink V2MO
Phase Status In Orbit
Owner/State SPXS/US

Most Searched